Tracking 17828 objects as of 31-July-2016
HD Live streaming from Space Station
objects crossing your sky now

COSMOS 252 DEB

Track COSMOS 252 DEB now!
10-day predictions


NORAD ID: 3559
Int'l Code: 1968-097M
Perigee: 506.7 km
Apogee: 1,360.1 km
Inclination: 62.3 °
Period: 103.5 minutes
Semi major axis: 7304 km
RCS: 0.1149 m2 (medium)
Launch date: November 1, 1968
Source: Commonwealth of Independent States (former USSR) (CIS)
Launch site: TYURATAM MISSILE AND SPACE COMPLEX (TTMTR)

Note: This is SATELLITE DEBRIS
Your satellite tracking list
Your tracking list is empty





NASA's NSSDC Master Catalog

Two Line Element Set (TLE):
1  3559U 68097M   16211.94353602 +.00000976 +00000-0 +21939-3 0  9994
2  3559 062.2918 120.2793 0584130 072.1285 294.2553 13.90674270339815
Source of the keplerian elements: AFSPC

N2YO: 941